Regional Weather Roundup
Issued by NWS Raleigh/Durham, NC

Current Version | Previous Version | Text Only | Print | Product List | Glossary On
Versions: 1 2 3 4 5 6 7 8 9 10 11 12 13 14 15 16 17 18 19 20 21 22 23 24 25 26 27
000 ASUS42 KRAH 271310 RWRRAH NORTH CAROLINA WEATHER ROUNDUP NATIONAL WEATHER SERVICE RALEIGH NC 900 AM EDT TUE JUN 27 2017 NOTE: "FAIR" INDICATES FEW OR NO CLOUDS BELOW 12,000 FEET WITH NO SIGNIFICANT WEATHER AND/OR OBSTRUCTIONS TO VISIBILITY. NCZ001-053-055-056-065-067-271400- WESTERN NORTH CAROLINA CITY SKY/WX TMP DP RH WIND PRES REMARKS ASHEVILLE SUNNY 67 51 56 N10 30.15R JEFFERSON CLOUDY 58 47 67 NW6 30.17R HICKORY MOSUNNY 70 56 61 VRB3 30.10R RUTHERFORDTON NOT AVBL MOUNT AIRY SUNNY 70 55 58 CALM 30.12R BOONE NOT AVBL $$ NCZ021-022-025-041-071-084-088-271400- CENTRAL NORTH CAROLINA CITY SKY/WX TMP DP RH WIND PRES REMARKS CHARLOTTE MOSUNNY 74 60 61 N6 30.10R GREENSBORO PTSUNNY 69 58 67 N3 30.10R WINSTON-SALEM PTSUNNY 71 54 54 CALM 30.11R RALEIGH-DURHAM MOSUNNY 73 57 57 N8 30.06S FORT BRAGG NOT AVBL FAYETTEVILLE MOSUNNY 78 59 51 N8 30.03S BURLINGTON CLOUDY 71 58 63 N6 30.08R LAURINBURG SUNNY 75 64 68 N5 30.05R $$ NCZ011-015-027-028-043-044-047-080-103-271400- NORTHEASTERN NORTH CAROLINA CITY SKY/WX TMP DP RH WIND PRES REMARKS ROCKY MT-WILSO MOSUNNY 74 61 63 NW8 30.04R GREENVILLE MOSUNNY 73 63 68 NW3 30.05R WASHINGTON MOSUNNY N/A N/A N/A SW5 30.03S ELIZABETH CITY MOSUNNY 77 68 73 SW3 30.02S MANTEO MOSUNNY 75 67 75 W3 30.03S CAPE HATTERAS NOT AVBL $$ NCZ078-087-090-091-093-098-101-271400- SOUTHEASTERN NORTH CAROLINA CITY SKY/WX TMP DP RH WIND PRES REMARKS LUMBERTON PTSUNNY 73 66 78 SW3 30.03S GOLDSBORO NOT AVBL KINSTON MOSUNNY 75 64 69 W3 30.04S KENANSVILLE SUNNY 72 64 78 CALM 30.04S NEW BERN MOSUNNY 78 65 63 NW6 30.04S CHERRY POINT MOSUNNY 78 64 61 W3 30.04S BEAUFORT SUNNY 78 70 76 NW8 30.03R JACKSONVILLE MOSUNNY 76 66 71 W6 30.03R WILMINGTON SUNNY 78 65 63 W5 30.04R $$

USA.gov is the U.S. government's official web portal to all federal, state and local government web resources and services.